Regional Weather Roundup
Issued by NWS Grand Forks, ND

Home | Current Version | Previous Version | Graphics & Text | Print | Product List | Glossary On
Versions: 1 2 3 4 5 6 7 8 9 10 11 12 13 14 15 16 17 18 19 20 21 22 23 24 25 26 27 28 29 30 31 32 33 34 35 36 37 38 39 40 41 42 43 44 45 46 47 48 49 50
000
ASUS43 KFGF 211331
RWRFGF
PRAIRIE TO PINES  WEATHER ROUNDUP
NATIONAL WEATHER SERVICE EASTERN NORTH DAKOTA/GRAND FORKS ND
700 AM CST SUN JAN 21 2018

 **SATELLITE DATA USED TO AUGMENT SKY COVER AT AUTOMATED STATIONS**
 *****  WEATHER ACROSS EASTERN NORTH DAKOTA  *****

CITY           SKY/WX    TMP DP  RH WIND       PRES   REMARKS
GRAND FORKS    CLOUDY    21  20  96 N9        30.03R FOG     WCI  11
GRAND FRKS AFB CLOUDY    19  17  93 N7        30.03R WCI  10
DEVILS LAKE    FAIR      10   7  87 CALM      30.02R
FARGO          FAIR      17  15  92 N6        30.01R WCI   9
WAHPETON ARPT  PTSUNNY   23  21  93 NW5       30.00S WCI  17
$$

 ***** WEATHER ACROSS CENTRAL AND WESTERN NORTH DAKOTA  *****

CITY           SKY/WX    TMP DP  RH WIND       PRES   REMARKS
BISMARCK       FAIR      13  11  92 CALM      30.02R
MINOT          FAIR      16  12  84 S8        29.99R WCI   5
JAMESTOWN      FAIR      14  12  92 NW6       29.99S WCI   5
MINOT AFB      FAIR      11   9  88 W5        29.98R WCI   3
GARRISON         N/A     10   8  92 CALM      30.00R
WILLISTON      FAIR       8   5  87 CALM      29.99R
DICKINSON      FAIR      20  15  81 W9        29.95S WCI   9
HETTINGER      FAIR      16  12  84 NW5       29.98S WCI   9
$$

 *****  OTHER AIRPORT OBSERVATIONS IN OUR AREA  *****

CITY           SKY/WX    TMP DP  RH WIND       PRES   REMARKS
WALHALLA       FAIR      21  23 100 N7        30.05R WCI  13
GRAFTON AIRPOR NOT AVBL
VALLEY CITY AR NOT AVBL
CANDO          FAIR       5   5 100 SW6       30.04R WCI  -6
CAVALIER APRT    N/A     21  21 100 N5        30.05R WCI  15
GWINNER          N/A     23  21  93 N8        29.99S WCI  14
SHEYENNE NWR     N/A     23  22  96 N5        29.95S WCI  17
ROLLA          FAIR      14  14 100 CALM      30.00R
 ***** THE ABOVE OBSERVATIONS ARE NON NWS ARE NOT QUALITY
       CONTROLLED AND MAY MIS-REPORT RAIN FOR SNOW...
$$

  *****  WEATHER ACROSS NORTHERN MINNESOTA  *****

CITY           SKY/WX    TMP DP  RH WIND       PRES   REMARKS
FLAG ISLAND    CLOUDY    23  21  93 NW6       29.99R WCI  16
WARROAD        CLOUDY    23  19  86 NW3       30.01S
ROSEAU         CLOUDY    23  19  86 CALM      30.02R FOG
HALLOCK        CLOUDY    19  18  93 NW3       30.04S
THF RVR FALLS  MOCLDY    16  12  86 N5        30.02R WCI   9
BAUDETTE       CLOUDY    22  21  96 NW7       29.98R FOG     WCI  13
WASKISH        FOG       18  16  93 CALM      29.99R VSB 1/2
CROOKSTON      FOG       16  14  93 N3        30.04R VSB 1/2
STEPHEN NDAWN    N/A     19  18  93 N3          N/A
GREENBUSH NDAW   N/A     19  18  93 W3          N/A
$$
  *****  WEATHER ACROSS CENTRAL AND WEST MINNESOTA  *****

CITY           SKY/WX    TMP DP  RH WIND       PRES   REMARKS
FOSSTON        FOG        9   7  92 CALM      30.00R VSB 1/4
BEMIDJI        FAIR       9   7  91 CALM      29.97R
PARK RAPIDS    FOG       13   9  84 CALM      29.96R VSB 1/4
ELBOW LAKE     FAIR      26  26  99 W3        29.98R
WADENA         FOG       21  21 100 CALM      29.97R VSB 1/4
DETROIT LAKES  FOG       19  18  93 CALM      29.99R VSB 1/4
MOORHEAD       FAIR      18  16  93 N7        30.01S WCI   8
FERGUS FALLS   CLOUDY    25  25 100 CALM      29.98R
MORRIS MN      FAIR      30  28  93 NW6       29.96S WCI  24
STAPLES        FAIR      19  19 100 CALM      29.97R FOG
$$
  *****  WEATHER ELSEWHERE ACROSS MINNESOTA  *****

CITY           SKY/WX    TMP DP  RH WIND       PRES   REMARKS
DULUTH         FAIR      24  22  91 N5        29.94S WCI  18
INTRNTL FALLS  FOG       10   7  87 CALM      29.96R VSB 1/4
ELY            FAIR       9   7  92 CALM      29.95R
CLOQUET        FAIR      25  21  86 NW3       29.95F
WHEATON        NOT AVBL
BRAINERD       FAIR      24  22  91 CALM      29.97R FOG
HIBBING        FOG        8   5  87 CALM      29.96R VSB 1/4
ALEXANDRIA     FAIR      30  28  92 CALM      29.96R
SAINT CLOUD    CLOUDY    30  28  92 CALM      29.96S
MINNEAPOLIS    CLOUDY    34  31  88 N6        29.96R
$$

  *****  WEATHER ACROSS SOUTH DAKOTA  *****

CITY           SKY/WX    TMP DP  RH WIND       PRES   REMARKS
SIOUX FALLS    CLOUDY    34  30  85 NE8       29.93R
BROOKINGS      CLOUDY    38  30  73 N13       29.94R
WATERTOWN      CLOUDY    31  29  92 N3        29.94R
HURON          LGT RAIN  34  31  88 CALM      29.97R
SISSETON         N/A     30  25  81 NW8       29.98R WCI  22
ABERDEEN       FAIR      27  23  85 N8        29.99S WCI  19
MITCHELL       CLOUDY    35  31  85 N7        29.95S
PIERRE         CLOUDY    32  31  96 N5        29.96S
MOBRIDGE       FAIR      27  23  85 N3        29.95F
RAPID CITY     CLOUDY    28  24  85 NW3       29.98R
$$

  *****  SOME WEATHER IN NEARBY STATES *****

CITY           SKY/WX    TMP DP  RH WIND       PRES   REMARKS
GLASGOW MT     FAIR      14  12  92 NW3       29.99R
GREAT FALLS MT FAIR      24  16  71 S14       30.00S WCI  12
CHEYENNE WY    LGT SNOW  22  21  96 N16       29.80S FOG     WCI   8
SCOTTSBLUFF NE LGT SNOW  29  26  89 NE18      29.89S FOG     WCI  16
OMAHA NE       CLOUDY    40  37  89 N8        29.81F
DES MOINES IA  CLOUDY    40  38  93 NE8       29.86S FOG
DAVENPORT IA   CLOUDY    40  36  86 SE6       29.93S
CHICAGO IL     CLOUDY    37  35  92 S5        29.96F FOG
EAU CLAIRE WI  CLOUDY    28  26  92 CALM      29.94S FOG
LA CROSSE WI   FOG       22  20  92 CALM      29.96R VSB<1/4
$$

  *****  SOME NATIONAL WEATHER *****

CITY           SKY/WX    TMP DP  RH WIND       PRES   REMARKS
LA GUARDIA NY  MOCLDY    44  28  53 W7        30.16R
RALEIGH NC     FAIR      32  30  92 CALM      30.23S
ATLANTA GA     FAIR      40  36  86 NW5       30.25R
NEW ORLEANS LA FAIR      52  52 100 CALM      30.15R
OKLAHOMA CITY  MOCLDY    54  51  90 S25G35    29.79S
ALBUQUERQUE NM FAIR      31  18  58 SW10      29.81F WCI  22
SALT LAKE CITY MOCLDY    28  22  78 N6        30.09R WCI  22
LOS ANGELES CA FAIR      45  27  49 E5        30.21R
BOISE ID       FAIR      27  23  85 SE3       30.19R
SEATTLE WA     CLOUDY    50  35  56 S22G30    29.82F
$$

*** WEATHER ACROSS MANITOBA...SASKATCHEWAN AND ONTARIO ***
                ***ONTARIO***

CITY           SKY/WX    TMP DP  RH WIND       PRES   REMARKS
GERALDTON      FLURRIES   9   5  85 NE7       30.03R WCI  -3
THUNDER BAY    FRZ DRZL  21  21 100 VRB2      29.99R FOG
SIOUX LOOKOUT  FLURRIES  14  12  92 NE6       29.99R WCI   5
TORONTO        MOCLDY    30  27  86 CALM      30.09R
BIG TROUT LK   CLEAR    -17 -20  83 N5        30.24R WCI -29
PICKLE LAKE    FLURRIES   0  -4  85 E7        30.06R WCI -13
DRYDEN         CLOUDY    19  19 100 NE9       29.96R WCI   9
KENORA         CLOUDY    21  19  93 NW3       29.97R
$$
                *** MANITOBA***

CITY           SKY/WX    TMP DP  RH WIND       PRES   REMARKS
BRANDON        CLOUDY    19  16  86 E9        30.03R WCI   9
DAUPHIN        CLOUDY    14  10  85 CALM      30.07R
ISLAND LAKE    CLOUDY    -4  -8  84 E8        30.21R WCI -19
PILOT MOUND      N/A     14  10  85 E2          N/A
THE PAS        FLURRIES   0  -6  78 E5        30.10R WCI -10
THOMPSON       FLURRIES  -8 -13  77 E6        30.23R WCI -21
WINNIPEG       CLOUDY    18  14  86 NE7       30.06R WCI   8
LYNN LAKE      LGT SNOW  -4  -6  92 E6        30.12R WCI -16
CHURCHILL      LGT SNOW -13 -18  77 NW8       30.43R WCI -30
GILLAM         FLURRIES -15 -18  84 E3        30.34R
$$
                ***SASKATCHEWAN***

CITY           SKY/WX    TMP DP  RH WIND       PRES   REMARKS
ESTEVAN        CLEAR      7   3  85 S3        29.98R
KINDERSLEY     PTCLDY    10   9  92 NE2       29.86F
LLOYDMINSTER   CLOUDY    19  18  93 CALM      29.88S FOG
PRINCE ALBERT  FLURRIES  14  12  92 E6        29.96R WCI   5
REGINA         PTCLDY     9   5  85 SE7       29.94S WCI  -3
YORKTON        CLOUDY    21  19  93 S3        29.97R
N. BATTLEFORD  FOG       14  12  92 NW6       29.93R VSB 1/8 WCI   5
LA RONGE       FLURRIES   7   5  92 N58       29.99R WCI -23
SASKATOON      CLOUDY    16  14  93 S3        29.93S FOG
SWIFT CURRENT  CLEAR     23  18  80 W15       29.87S WCI  10
$$
NOTE: THESE ARE AUTOMATED STATIONS WITH LIMITED QUALITY CONTROL
      "FAIR" INDICATES FEW OR NO CLOUDS BELOW 12,000 FEET WITH NO
      SIGNIFICANT WEATHER AND/OR OBSTRUCTIONS TO VISIBILITY.
      SKY/WX - SKY CONDITION AND SIGNIFICANT WEATHER.
      TMP - AIR TEMPERATURE.    DP   - DEWPOINT TEMPERATURE.
      RH  - RELATIVE HUMIDITY.  PRES - PRESSURE.
      HX  - HEAT INDEX.         WCI  - WIND CHILL INDEX.
$




USA.gov is the U.S. government's official web portal to all federal, state and local government web resources and services.